TimeCEST,TemperatureF,Dew PointF,Humidity,Sea Level PressureIn,VisibilityMPH,Wind Direction,Wind SpeedMPH,Gust SpeedMPH,PrecipitationIn,Events,Conditions,WindDirDegrees,DateUTC
12:25 AM,50.0,48.2,94,29.59,6.2,ESE,8.1,-,N/A,,Mostly Cloudy,110,2013-05-14 22:25:00
12:55 AM,50.0,46.4,87,29.56,6.2,ESE,8.1,-,N/A,,Overcast,120,2013-05-14 22:55:00
1:25 AM,50.0,46.4,87,29.56,6.2,ESE,8.1,-,N/A,,Overcast,120,2013-05-14 23:25:00
1:55 AM,50.0,48.2,94,29.53,6.2,SE,8.1,-,N/A,,Overcast,130,2013-05-14 23:55:00
2:00 AM,50,47,87,29.55,6,ESE,8.9,,,,Partly Cloudy,120,2013-05-15 00:00:00
2:25 AM,50.0,46.4,87,29.53,6.2,SE,10.4,-,N/A,,Overcast,130,2013-05-15 00:25:00
2:55 AM,50.0,46.4,87,29.50,6.2,SE,8.1,-,N/A,,Overcast,140,2013-05-15 00:55:00
3:25 AM,50.0,46.4,87,29.50,6.2,SE,9.2,-,N/A,,Mostly Cloudy,140,2013-05-15 01:25:00
3:55 AM,50.0,46.4,87,29.50,6.2,SE,8.1,-,N/A,,Overcast,140,2013-05-15 01:55:00
4:25 AM,50.0,44.6,82,29.47,6.2,SSE,6.9,-,N/A,,Mostly Cloudy,150,2013-05-15 02:25:00
4:55 AM,51.8,44.6,76,29.44,6.2,SE,6.9,-,N/A,,Overcast,140,2013-05-15 02:55:00
5:00 AM,51,45,74,29.47,25,SE,6.7,,,,Overcast,140,2013-05-15 03:00:00
5:25 AM,51.8,46.4,82,29.44,6.2,SSE,8.1,-,N/A,,Overcast,150,2013-05-15 03:25:00
5:55 AM,51.8,46.4,82,29.44,6.2,SE,8.1,-,N/A,,Mostly Cloudy,140,2013-05-15 03:55:00
6:25 AM,50.0,46.4,87,29.44,6.2,SSE,8.1,-,N/A,,Overcast,150,2013-05-15 04:25:00
6:55 AM,51.8,46.4,82,29.44,6.2,South,6.9,-,N/A,,Overcast,180,2013-05-15 04:55:00
7:25 AM,51.8,46.4,82,29.47,6.2,South,9.2,-,N/A,,Overcast,170,2013-05-15 05:25:00
7:55 AM,51.8,48.2,88,29.47,6.2,South,6.9,-,N/A,,Overcast,180,2013-05-15 05:55:00
8:00 AM,53,48,77,29.48,19,South,6.7,,,Rain,Light Rain Showers,170,2013-05-15 06:00:00
8:25 AM,53.6,48.2,82,29.47,6.2,South,8.1,-,N/A,,Overcast,190,2013-05-15 06:25:00
8:55 AM,55.4,48.2,77,29.47,6.2,South,10.4,-,N/A,Rain,Light Drizzle,190,2013-05-15 06:55:00
9:25 AM,55.4,50.0,82,29.47,6.2,SSW,11.5,-,N/A,,Drizzle,200,2013-05-15 07:25:00
9:34 AM,55.4,48.2,77,29.47,6.2,SSW,13.8,-,N/A,Rain,Light Rain,200,2013-05-15 07:34:00
9:37 AM,55.4,48.2,77,29.47,6.2,SSW,13.8,-,N/A,,Overcast,200,2013-05-15 07:37:00
9:50 AM,55.4,48.2,77,29.47,6.2,SSW,13.8,-,N/A,,Overcast,200,2013-05-15 07:50:00
9:55 AM,57.2,48.2,72,29.47,6.2,SSW,13.8,-,N/A,,Mostly Cloudy,200,2013-05-15 07:55:00
10:06 AM,55.4,48.2,77,29.47,6.2,SSW,16.1,-,N/A,,Mostly Cloudy,200,2013-05-15 08:06:00
10:10 AM,55.4,48.2,77,29.47,6.2,SSW,15.0,-,N/A,,Mostly Cloudy,210,2013-05-15 08:10:00
10:14 AM,55.4,48.2,77,29.47,6.2,SSW,13.8,-,N/A,,Mostly Cloudy,210,2013-05-15 08:14:00
10:25 AM,53.6,48.2,82,29.50,6.2,SW,16.1,-,N/A,Rain,Light Rain,220,2013-05-15 08:25:00
10:35 AM,53.6,46.4,77,29.50,6.2,SW,12.7,-,N/A,,Mostly Cloudy,230,2013-05-15 08:35:00
10:55 AM,53.6,46.4,77,29.50,6.2,SW,12.7,-,N/A,,Light Drizzle,220,2013-05-15 08:55:00
11:00 AM,53,46,70,29.53,28,SW,11.2,,,Rain,Light Rain Showers,220,2013-05-15 09:00:00
11:25 AM,51.8,44.6,76,29.50,6.2,SSW,15.0,-,N/A,,Drizzle,210,2013-05-15 09:25:00
11:55 AM,53.6,48.2,82,29.50,6.2,SW,9.2,-,N/A,,Mostly Cloudy,220,2013-05-15 09:55:00
12:20 PM,55.4,48.2,77,29.50,6.2,SW,12.7,-,N/A,,Scattered Clouds,230,2013-05-15 10:20:00
12:25 PM,55.4,48.2,77,29.50,6.2,SW,13.8,-,N/A,,Mostly Cloudy,220,2013-05-15 10:25:00
12:26 PM,55.4,48.2,77,29.50,6.2,SW,12.7,-,N/A,,Mostly Cloudy,220,2013-05-15 10:26:00
12:55 PM,55.4,46.4,72,29.50,6.2,SSW,15.0,-,N/A,,Scattered Clouds,210,2013-05-15 10:55:00
1:25 PM,57.2,44.6,63,29.50,6.2,SSW,15.0,-,N/A,,Mostly Cloudy,210,2013-05-15 11:25:00
1:55 PM,59.0,44.6,59,29.50,6.2,SSW,12.7,-,N/A,,Overcast,200,2013-05-15 11:55:00
2:00 PM,59,44,48,29.53,28,SSW,15.7,,,,Partly Cloudy,200,2013-05-15 12:00:00
2:25 PM,59.0,46.4,63,29.50,6.2,SSW,11.5,-,N/A,,Mostly Cloudy,200,2013-05-15 12:25:00
2:55 PM,60.8,42.8,52,29.50,6.2,SSW,17.3,-,N/A,,Overcast,200,2013-05-15 12:55:00
3:25 PM,62.6,41.0,45,29.50,6.2,SSW,16.1,28.8,N/A,,Mostly Cloudy,200,2013-05-15 13:25:00
3:55 PM,62.6,41.0,45,29.53,6.2,SSW,16.1,-,N/A,,Partly Cloudy,210,2013-05-15 13:55:00
4:25 PM,64.4,37.4,37,29.53,6.2,SSW,16.1,-,N/A,,Mostly Cloudy,210,2013-05-15 14:25:00
4:55 PM,62.6,37.4,39,29.53,6.2,SSW,13.8,-,N/A,,Partly Cloudy,200,2013-05-15 14:55:00
5:00 PM,64,40,29,29.55,22,SSW,13.4,,,,Partly Cloudy,200,2013-05-15 15:00:00
5:25 PM,62.6,39.2,42,29.53,6.2,SSW,12.7,-,N/A,,Partly Cloudy,210,2013-05-15 15:25:00
5:55 PM,60.8,39.2,45,29.53,6.2,SW,11.5,-,N/A,,Unknown,220,2013-05-15 15:55:00
6:25 PM,62.6,37.4,39,29.53,6.2,SSW,11.5,-,N/A,,Mostly Cloudy,210,2013-05-15 16:25:00
6:55 PM,62.6,37.4,39,29.53,6.2,SW,15.0,-,N/A,,Overcast,220,2013-05-15 16:55:00
7:25 PM,60.8,37.4,42,29.53,6.2,SW,12.7,-,N/A,,Scattered Clouds,230,2013-05-15 17:25:00
7:55 PM,60.8,39.2,45,29.56,6.2,SW,11.5,-,N/A,,Partly Cloudy,220,2013-05-15 17:55:00
8:00 PM,60,40,35,29.57,28,SW,11.2,,,,Partly Cloudy,230,2013-05-15 18:00:00
8:25 PM,60.8,41.0,48,29.56,6.2,WSW,6.9,-,N/A,,Overcast,240,2013-05-15 18:25:00
8:55 PM,59.0,41.0,51,29.56,6.2,WSW,9.2,-,N/A,,Overcast,240,2013-05-15 18:55:00
9:25 PM,57.2,41.0,55,29.56,6.2,WSW,6.9,-,N/A,,Overcast,240,2013-05-15 19:25:00
9:55 PM,53.6,41.0,62,29.59,6.2,SSW,3.5,-,N/A,,Overcast,210,2013-05-15 19:55:00
10:25 PM,53.6,42.8,67,29.59,6.2,SSW,2.3,-,N/A,,Overcast,210,2013-05-15 20:25:00
10:55 PM,53.6,42.8,67,29.59,6.2,WSW,1.2,-,N/A,,Overcast,250,2013-05-15 20:55:00
11:10 PM,51.8,42.8,71,29.59,6.2,WNW,3.5,-,N/A,,Overcast,290,2013-05-15 21:10:00
11:25 PM,51.8,42.8,71,29.62,6.2,NW,5.8,-,N/A,,Overcast,320,2013-05-15 21:25:00
11:55 PM,51.8,42.8,71,29.59,6.2,North,4.6,-,N/A,,Overcast,350,2013-05-15 21:55:00